Regional Weather Roundup
Issued by NWS

Home | Current Version | Previous Version | Graphics & Text | Print | Product List | Glossary Off
Versions: 1 2 3 4 5 6 7 8 9 10 11 12 13 14 15 16 17 18 19 20 21 22 23 24 25 26 27 28 29 30 31 32 33 34 35 36 37 38 39 40 41 42 43 44 45 46 47 48 49 50

000
ASUS43 KMKX 100321
RWRWI

WISCONSIN REGIONAL WEATHER ROUNDUP
NATIONAL WEATHER SERVICE MILWAUKEE/SULLIVAN WI
1000 PM CDT WED JUL 09 2014

NOTE: "FAIR" INDICATES FEW OR NO CLOUDS BELOW 12,000 FEET WITH NO
SIGNIFICANT WEATHER AND/OR OBSTRUCTIONS TO VISIBILITY.

WIZ001-002-006>008-014>016-023>028-100400-
NORTHWEST WISCONSIN

CITY           SKY/WX    TMP DP  RH WIND       PRES   REMARKS
SUPERIOR ARPT  CLEAR     55  54  96 CALM      30.01R
ASHLAND        CLEAR     56  51  84 S3        30.03R
HAYWARD        CLEAR     58  56  93 N3        30.04R
SIREN          CLEAR     60  57  91 CALM      30.03R
RICE LAKE      CLEAR     61  54  77 E3        30.04R
LADYSMITH      CLEAR     61  54  77 CALM      30.06R
EAU CLAIRE     PTCLDY    64  56  75 E3        30.02R
MENOMONIE      CLEAR     64  61  91 E3        30.02R
NEW RICHMOND   CLEAR     64  57  78 SE5       30.02R
OSCEOLA        CLEAR     64  60  85 CALM      30.04R
$$

WIZ003>005-009-010-017-018-100400-
NORTH CENTRAL WISCONSIN

CITY           SKY/WX    TMP DP  RH WIND       PRES   REMARKS
WOODRUFF       CLEAR     52  40  64 CALM      30.06S
RHINELANDER    CLEAR     50  47  89 CALM      30.07R
EAGLE RIVER    CLEAR     50  49  97 CALM      30.06R
LAND O LAKES   CLEAR     48  47  96 CALM      30.07R
PHILLIPS       CLEAR     55  52  89 CALM      30.05R
TOMAHAWK       CLEAR     51  49  93 CALM      30.07R
MEDFORD        CLEAR     53  51  92 CALM      30.06R
MERRILL        CLEAR     54  52  92 CALM      30.06R
$$

WIZ029-030-035-036-043>047-100400-
CENTRAL WISCONSIN

CITY           SKY/WX    TMP DP  RH WIND       PRES   REMARKS
WAUSAU         CLEAR     59  51  75 CALM      30.05R
MOSINEE        CLEAR     57  52  82 CALM      30.06R
MARSHFIELD     CLEAR     60  53  77 CALM      30.05R
STEVENS POINT  CLEAR     56  51  85 CALM      30.06R
WAUPACA        CLEAR     58  53  81 CALM      30.05R
WAUTOMA        CLEAR     58  56  93 CALM      30.06R
WISC RAPIDS    PTCLDY    59  53  80 CALM      30.06R
CAMP DOUGLAS   CLEAR     57  57 100 CALM      30.04R
$$

WIZ011>013-019>022-031-037>040-048>050-100400-
NORTHEAST WISCONSIN

CITY           SKY/WX    TMP DP  RH WIND       PRES   REMARKS
ANTIGO         CLEAR     52  50  95 CALM      30.07R
STURGEON BAY   CLEAR     55  52  88 CALM      30.06R
GREEN BAY      CLEAR     60  55  83 CALM      30.05R
MANITOWOC      CLEAR     57  53  86 CALM      30.06R
APPLETON       CLEAR     63  46  55 CALM      30.05R
CLINTONVILLE   CLEAR     55  50  82 CALM      30.05R
OSHKOSH        CLEAR     60  54  80 CALM      30.04R
$$

WIZ032>034-041-042-053>061-100400-
SOUTHWEST WISCONSIN

CITY           SKY/WX    TMP DP  RH WIND       PRES   REMARKS
LA CROSSE      CLEAR     67  57  70 E5        30.02R
SPARTA         CLEAR     60  55  84 CALM      30.05R
VIROQUA        FAIR      64  54  71 SE5       30.05R
BOSCOBEL       CLEAR     61  57  87 CALM      30.04R
PRAIRIE DU CHI PTCLDY    64  58  81 CALM      30.03R
PLATTEVILLE    FAIR      66  54  64 E3        30.05R
$$

WIZ056-057-062-063-064-067-068-100400-
SOUTH CENTRAL WISCONSIN

CITY           SKY/WX    TMP DP  RH WIND       PRES   REMARKS
BARABOO/DELLS  CLEAR     59  52  77 CALM      30.05R
LONE ROCK      CLEAR     62  56  80 CALM      30.04R
WATERTOWN      CLEAR     60  54  80 CALM      30.04R
MADISON        CLEAR     61  54  77 CALM      30.04R
MIDDLETON      FAIR      60  59  99 CALM      30.05R
MONROE         CLEAR     68  52  56 CALM      30.05R
JANESVILLE     CLEAR     64  52  63 CALM      30.04R
$$

WIZ051-052-058>065-066-070>072-100400-
SOUTHEAST WISCONSIN

CITY           SKY/WX    TMP DP  RH WIND       PRES   REMARKS
MILWAUKEE      CLEAR     63  56  78 CALM      30.04R
WAUKESHA       CLEAR     57  50  77 CALM      30.06R
MILWAUKEE/TIMM CLEAR     63  54  72 CALM      30.05R
RACINE         CLEAR     61  55  81 S3        30.06R
BURLINGTON     CLEAR     56  53  89 CALM      30.04S
KENOSHA        CLEAR     59  55  87 E5        30.05R
FOND DU LAC    CLEAR     57  53  86 W3        30.05R
SHEBOYGAN      CLEAR     57  54  89 CALM      30.05R
WEST BEND      CLEAR     59  52  77 CALM      30.05R
JUNEAU         CLEAR     64  39  40 CALM      30.06R
$$

LSZ147-162-100400-
LAKE SUPERIOR

STATION/POSITION TIME  TEMP    WIND        PRES    WAVE
                       AIR SEA DIR/SP/G            HT/PER
                 (UTC) (F)     (DEG/KT/KT) (MB)    (FT/S)
W MID LAKE BUOY  0250   45 38  220/  6/  8 1016.8R   0
DEVILS ISLAND    0300   62     160/  9/ 10 1016.6R
PORT WING        0200   66     140/  1/  2 1015.9R
SAXON HARBOR     0200          190/  3/  4 1016.3S
$$

LMZ867-665-643>646-100400-
LAKE MICHIGAN

STATION/POSITION TIME  TEMP    WIND        PRES    WAVE
                       AIR SEA DIR/SP/G            HT/PER
                 (UTC) (F)     (DEG/KT/KT) (MB)    (FT/S)
N MID LAKE BUOY  0250   56 54  250/  2/  2 1017.3R   0
NORTHPORT PIER   0200   58     200/  1/  3 1016.6R
SISTER BAY       0210   58        CALM       N/A
KEWAUNEE LAKESHO 0300   56     280/  2/  3 1018.3R
SHEBOYGAN LAKESH 0300   58     200/  5/  6 1017.7R
PORT WASHINGTON  0200   61     180/  1/  3 1017.3R
MILWAUKEE LAKESH 0300   60        CALM       N/A
S MID LAKE BUOY  0250   58 57  360/  2/  4 1017.6R   0
KENOSHA   LAKESH 0300   61     190/  2/  4   N/A
$$

TC  - TEMPERATURE IN CELSIUS
VSB - VISIBILITY IN STATUTE MILES
WCI - WIND CHILL INDEX
HX  - HEAT INDEX



USA.gov is the U.S. government's official web portal to all federal, state and local government web resources and services.